Estación Meteorológica de la Universidad de Murcia
Estación Meteorológica de la Universidad de Murcia
Universidad de Murcia
 

Temperatura ambienteTemperatura ambiente

 

Máxima: 21,5 ºC a las 13:28:00 del día 15/12/2017
Mínima: 9,6 ºC a las 07:49:00 del día 15/12/2017

||Temperatura máxima últimos meses|| ---- ||Temperatura mínima últimos meses||


Temperatura máxima

  • 1 - 21,5 ºC del día 15/12/2017
  • 2 - 19,7 ºC del día 14/12/2017
  • 3 - 16,3 ºC del día 13/12/2017
  • 4 - 13,9 ºC del día 12/12/2017
  • 5 - 18,4 ºC del día 11/12/2017
  • 6 - 21,2 ºC del día 10/12/2017
  • 7 - 20,4 ºC del día 09/12/2017
  • 8 - 21,6 ºC del día 08/12/2017
  • 9 - 16,3 ºC del día 07/12/2017
  • 10 - 16,3 ºC del día 06/12/2017
  • 11 - 15,9 ºC del día 05/12/2017
  • 12 - 14,3 ºC del día 04/12/2017
  • 13 - 13,5 ºC del día 03/12/2017
  • 14 - 12,4 ºC del día 02/12/2017
  • 15 - 15,8 ºC del día 01/12/2017
  • 16 - 14,5 ºC del día 30/11/2017
  • 17 - 15,5 ºC del día 29/11/2017
  • 18 - 16,1 ºC del día 28/11/2017
  • 19 - 17,8 ºC del día 27/11/2017
  • 20 - 20,1 ºC del día 26/11/2017
  • 21 - 16,7 ºC del día 25/11/2017
  • 22 - 24,9 ºC del día 24/11/2017
  • 23 - 24,9 ºC del día 23/11/2017
  • 24 - 21,8 ºC del día 22/11/2017
  • 25 - 24 ºC del día 21/11/2017
  • 26 - 22,4 ºC del día 20/11/2017
  • 27 - 20,8 ºC del día 19/11/2017
  • 28 - 21,8 ºC del día 18/11/2017
  • 29 - 20,8 ºC del día 17/11/2017
  • 30 - 21,8 ºC del día 16/11/2017
  • 31 - 20,5 ºC del día 15/11/2017
  • 32 - 18,2 ºC del día 14/11/2017
  • 33 - 20,7 ºC del día 13/11/2017
  • 34 - 25,1 ºC del día 12/11/2017
  • 35 - 21,8 ºC del día 11/11/2017
  • 36 - 19,4 ºC del día 10/11/2017
  • 37 - 18,4 ºC del día 09/11/2017
  • 38 - 22,8 ºC del día 08/11/2017
  • 39 - 21 ºC del día 07/11/2017
  • 40 - 19,4 ºC del día 06/11/2017
  • 41 - 23 ºC del día 05/11/2017
  • 42 - 23 ºC del día 04/11/2017
  • 43 - 21,6 ºC del día 03/11/2017
  • 44 - 23,9 ºC del día 02/11/2017
  • 45 - 23,9 ºC del día 01/11/2017
  • 46 - 24,3 ºC del día 31/10/2017
  • 47 - 26 ºC del día 30/10/2017
  • 48 - 25,7 ºC del día 29/10/2017
  • 49 - 26,3 ºC del día 28/10/2017
  • 50 - 31 ºC del día 27/10/2017
  • 51 - 28,6 ºC del día 26/10/2017
  • 52 - 28,8 ºC del día 25/10/2017
  • 53 - 27,4 ºC del día 24/10/2017
  • 54 - 25,5 ºC del día 23/10/2017
  • 55 - 26,5 ºC del día 22/10/2017
  • 56 - 29,1 ºC del día 21/10/2017
  • 57 - 26,9 ºC del día 20/10/2017
  • 58 - 23,3 ºC del día 19/10/2017
  • 59 - 24,7 ºC del día 18/10/2017
  • 60 - 27,1 ºC del día 17/10/2017

||Volver al inicio de la página||


Temperatura mínima

  • 1 - 9,6 ºC del día 15/12/2017
  • 2 - 5,9 ºC del día 14/12/2017
  • 3 - 3,6 ºC del día 13/12/2017
  • 4 - 4 ºC del día 12/12/2017
  • 5 - 5,9 ºC del día 11/12/2017
  • 6 - 9,6 ºC del día 10/12/2017
  • 7 - 8,9 ºC del día 09/12/2017
  • 8 - 5,1 ºC del día 08/12/2017
  • 9 - 3,8 ºC del día 07/12/2017
  • 10 - 4 ºC del día 06/12/2017
  • 11 - 0,399999999999999 ºC del día 05/12/2017
  • 12 - 0,199999999999999 ºC del día 04/12/2017
  • 13 - 4,6 ºC del día 03/12/2017
  • 14 - 4,3 ºC del día 02/12/2017
  • 15 - 5 ºC del día 01/12/2017
  • 16 - 5,6 ºC del día 30/11/2017
  • 17 - 12,2 ºC del día 29/11/2017
  • 18 - 9,4 ºC del día 28/11/2017
  • 19 - 10,7 ºC del día 27/11/2017
  • 20 - 10,4 ºC del día 26/11/2017
  • 21 - 9 ºC del día 25/11/2017
  • 22 - 8,2 ºC del día 24/11/2017
  • 23 - 6,1 ºC del día 23/11/2017
  • 24 - 7,2 ºC del día 22/11/2017
  • 25 - 7,3 ºC del día 21/11/2017
  • 26 - 8,2 ºC del día 20/11/2017
  • 27 - 7,9 ºC del día 19/11/2017
  • 28 - 7 ºC del día 18/11/2017
  • 29 - 6,8 ºC del día 17/11/2017
  • 30 - 6,4 ºC del día 16/11/2017
  • 31 - 5 ºC del día 15/11/2017
  • 32 - 6,9 ºC del día 14/11/2017
  • 33 - 12,2 ºC del día 13/11/2017
  • 34 - 10,4 ºC del día 12/11/2017
  • 35 - 8,9 ºC del día 11/11/2017
  • 36 - 8,1 ºC del día 10/11/2017
  • 37 - 9,8 ºC del día 09/11/2017
  • 38 - 7,3 ºC del día 08/11/2017
  • 39 - 9,7 ºC del día 07/11/2017
  • 40 - 11,7 ºC del día 06/11/2017
  • 41 - 12,4 ºC del día 05/11/2017
  • 42 - 14,6 ºC del día 04/11/2017
  • 43 - 13,6 ºC del día 03/11/2017
  • 44 - 13,1 ºC del día 02/11/2017
  • 45 - 15,1 ºC del día 01/11/2017
  • 46 - 13,9 ºC del día 31/10/2017
  • 47 - 12,4 ºC del día 30/10/2017
  • 48 - 15,2 ºC del día 29/10/2017
  • 49 - 14,3 ºC del día 28/10/2017
  • 50 - 12 ºC del día 27/10/2017
  • 51 - 13 ºC del día 26/10/2017
  • 52 - 13,1 ºC del día 25/10/2017
  • 53 - 13,7 ºC del día 24/10/2017
  • 54 - 15,3 ºC del día 23/10/2017
  • 55 - 17,2 ºC del día 22/10/2017
  • 56 - 14,3 ºC del día 21/10/2017
  • 57 - 15,1 ºC del día 20/10/2017
  • 58 - 13,2 ºC del día 19/10/2017
  • 59 - -20 ºC del día 18/10/2017
  • 60 - 16 ºC del día 17/10/2017

 

|| Humedad relativa|| Velocidad y dirección del viento|| Precipitación|| Radiación Solar Global y PAR|| Temperatura y humedad del suelo|| Presión atmosférica|| Más información|| Volver a la página principal|| Volver al inicio de la página||


Estación Meteorológica de la Universidad de Murcia
http://estacion.um.es/
Informacion actualizada a: 16/12/2017 a las 06:07:00